When you browse on this site, cookies collect data to enhance your experience and personalize the content and advertising you see.
Visit our Privacy Policy to learn more. By continuing to use the site, you agree to this use of cookies and data.
  • In Belgium
  • List of Countries
  • For 7 days
  • Water Temperature
  • Weather Map
  • Weather Widgets
  • user-avatar
    Login

    Hourly Weather Sarajevo

    Today, 21 September, Saturday

    Time Temperature Precipitation Wind Pressure Humidity
    00:00 +4°C° 0 mm 2 mps 693 mmHg 68%
    01:00 +4°C° 0 mm 2 mps 693 mmHg 69%
    02:00 +4°C° 0 mm 2 mps 693 mmHg 70%
    03:00 +4°C° 0 mm 2 mps 693 mmHg 71%
    04:00 +3°C° 0 mm 2 mps 693 mmHg 73%
    05:00 +4°C° 0 mm 2 mps 693 mmHg 69%
    06:00 +5°C° 0 mm 2 mps 693 mmHg 66%
    07:00 +6°C° 0 mm 2 mps 693 mmHg 62%
    08:00 +9°C° 0 mm 2 mps 694 mmHg 53%
    09:00 +13°C° 0 mm 1 mps 694 mmHg 45%
    10:00 +16°C° 0 mm 1 mps 695 mmHg 36%
    11:00 +19°C° 0 mm 1 mps 695 mmHg 35%
    12:00 +20°C° 0 mm 1 mps 695 mmHg 33%
    13:00 +21°C° 0 mm 1 mps 695 mmHg 32%
    14:00 +21°C° 0 mm 1 mps 694 mmHg 35%
    15:00 +20°C° 0 mm 1 mps 694 mmHg 38%
    16:00 +20°C° 0 mm 1 mps 694 mmHg 40%
    17:00 +16°C° 0 mm 1 mps 693 mmHg 48%
    18:00 +12°C° 0 mm 0 mps 693 mmHg 56%
    19:00 +10°C° 0 mm 0 mps 692 mmHg 64%
    20:00 +9°C° 0 mm 0 mps 692 mmHg 64%
    21:00 +10°C° 0 mm 1 mps 692 mmHg 63%
    22:00 +10°C° 0 mm 1 mps 692 mmHg 63%
    23:00 +10°C° 0 mm 1 mps 692 mmHg 63%

    Tomorrow, 22 September, Sunday

    Time Temperature Precipitation Wind Pressure Humidity
    00:00 +10°C° 0 mm 1 mps 692 mmHg 62%
    01:00 +10°C° 0 mm 1 mps 692 mmHg 62%
    02:00 +9°C° 0 mm 1 mps 692 mmHg 62%
    03:00 +9°C° 0 mm 1 mps 691 mmHg 61%
    04:00 +9°C° 0 mm 1 mps 691 mmHg 61%
    05:00 +10°C° 0 mm 1 mps 691 mmHg 59%
    06:00 +11°C° 0 mm 1 mps 691 mmHg 58%
    07:00 +12°C° 0 mm 1 mps 691 mmHg 56%
    08:00 +15°C° 0 mm 1 mps 692 mmHg 48%
    09:00 +19°C° 0 mm 1 mps 692 mmHg 39%
    10:00 +20°C° 0 mm 2 mps 692 mmHg 31%
    11:00 +21°C° 0 mm 2 mps 692 mmHg 31%
    12:00 +21°C° 0 mm 2 mps 692 mmHg 32%
    13:00 +23°C° 0 mm 2 mps 691 mmHg 32%
    14:00 +21°C° 0 mm 2 mps 691 mmHg 37%
    15:00 +20°C° 0 mm 2 mps 691 mmHg 41%
    16:00 +19°C° 0 mm 2 mps 690 mmHg 46%
    17:00 +18°C° 0 mm 2 mps 690 mmHg 50%
    18:00 +16°C° 0 mm 1 mps 690 mmHg 54%
    19:00 +15°C° 0 mm 1 mps 690 mmHg 58%
    20:00 +15°C° 0 mm 1 mps 690 mmHg 60%
    21:00 +14°C° 0 mm 1 mps 690 mmHg 62%
    22:00 +14°C° 0 mm 1 mps 690 mmHg 64%
    23:00 +13°C° 0 mm 1 mps 690 mmHg 64%

    Day after tomorrow, 23 September, Monday

    Time Temperature Precipitation Wind Pressure Humidity
    00:00 +13°C° 0 mm 1 mps 689 mmHg 65%
    01:00 +13°C° 0 mm 1 mps 689 mmHg 65%
    02:00 +12°C° 0 mm 1 mps 689 mmHg 65%
    03:00 +12°C° 0 mm 1 mps 689 mmHg 64%
    04:00 +12°C° 0 mm 1 mps 688 mmHg 63%
    05:00 +13°C° 0 mm 1 mps 689 mmHg 65%
    06:00 +13°C° 0 mm 1 mps 689 mmHg 66%
    07:00 +14°C° 0 mm 1 mps 689 mmHg 68%
    08:00 +15°C° 0 mm 1 mps 689 mmHg 68%
    09:00 +16°C° 0 mm 2 mps 689 mmHg 69%
    10:00 +17°C° 0 mm 2 mps 689 mmHg 69%
    11:00 +18°C° 0 mm 2 mps 689 mmHg 67%
    12:00 +19°C° 0 mm 2 mps 689 mmHg 65%
    13:00 +21°C° 0 mm 2 mps 689 mmHg 62%
    14:00 +20°C° 0 mm 2 mps 689 mmHg 66%
    15:00 +20°C° 0 mm 2 mps 689 mmHg 69%
    16:00 +20°C° 0 mm 2 mps 688 mmHg 72%
    17:00 +19°C° 0.2 mm 1 mps 688 mmHg 79%
    18:00 +18°C° 0.2 mm 1 mps 688 mmHg 86%
    19:00 +15°C° 0.2 mm 1 mps 687 mmHg 93%
    20:00 +15°C° 0.4 mm 1 mps 687 mmHg 94%
    21:00 +15°C° 0.4 mm 1 mps 687 mmHg 94%
    22:00 +14°C° 0.4 mm 1 mps 687 mmHg 94%
    23:00 +14°C° 0.2 mm 1 mps 687 mmHg 94%

    24 September, Tuesday

    Time Temperature Precipitation Wind Pressure Humidity
    00:00 +14°C° 0.2 mm 1 mps 687 mmHg 94%
    01:00 +14°C° 0.2 mm 1 mps 687 mmHg 94%
    02:00 +14°C° 0.4 mm 1 mps 687 mmHg 94%
    03:00 +14°C° 0.4 mm 1 mps 687 mmHg 94%
    04:00 +13°C° 0.4 mm 0 mps 686 mmHg 94%
    05:00 +13°C° 0 mm 0 mps 686 mmHg 93%
    06:00 +15°C° 0 mm 1 mps 687 mmHg 92%
    07:00 +15°C° 0 mm 1 mps 687 mmHg 91%
    08:00 +18°C° 0.3 mm 1 mps 687 mmHg 87%
    09:00 +19°C° 0.3 mm 1 mps 688 mmHg 83%
    10:00 +20°C° 0.3 mm 1 mps 688 mmHg 79%
    11:00 +21°C° 0.5 mm 1 mps 688 mmHg 77%
    12:00 +21°C° 0.5 mm 1 mps 688 mmHg 75%
    13:00 +21°C° 0.5 mm 1 mps 688 mmHg 74%
    14:00 +21°C° 0.4 mm 1 mps 688 mmHg 76%
    15:00 +20°C° 0.4 mm 1 mps 687 mmHg 78%
    16:00 +20°C° 0.4 mm 1 mps 687 mmHg 80%
    17:00 +18°C° 0.1 mm 1 mps 687 mmHg 85%
    18:00 +16°C° 0.1 mm 1 mps 687 mmHg 89%
    19:00 +15°C° 0.1 mm 1 mps 687 mmHg 93%
    20:00 +14°C° 0 mm 1 mps 687 mmHg 94%
    21:00 +14°C° 0 mm 1 mps 687 mmHg 94%
    22:00 +13°C° 0 mm 1 mps 687 mmHg 95%
    23:00 +13°C° 0 mm 1 mps 687 mmHg 95%

    25 September, Wednesday

    Time Temperature Precipitation Wind Pressure Humidity
    00:00 +12°C° 0 mm 1 mps 687 mmHg 95%
    01:00 +12°C° 0 mm 1 mps 686 mmHg 95%
    02:00 +12°C° 0 mm 1 mps 686 mmHg 94%
    03:00 +12°C° 0 mm 1 mps 686 mmHg 94%
    04:00 +11°C° 0 mm 1 mps 686 mmHg 94%
    05:00 +12°C° 0 mm 1 mps 686 mmHg 92%
    06:00 +13°C° 0 mm 1 mps 686 mmHg 91%
    07:00 +14°C° 0 mm 1 mps 687 mmHg 89%
    08:00 +16°C° 0 mm 1 mps 687 mmHg 80%
    09:00 +19°C° 0 mm 1 mps 688 mmHg 70%
    10:00 +22°C° 0 mm 1 mps 688 mmHg 61%
    11:00 +21°C° 0 mm 2 mps 688 mmHg 57%
    12:00 +23°C° 0 mm 2 mps 688 mmHg 54%
    13:00 +23°C° 0 mm 2 mps 688 mmHg 51%
    14:00 +23°C° 0 mm 2 mps 688 mmHg 54%
    15:00 +21°C° 0 mm 2 mps 687 mmHg 58%
    16:00 +20°C° 0 mm 2 mps 687 mmHg 61%
    17:00 +18°C° 0 mm 2 mps 687 mmHg 70%
    18:00 +18°C° 0 mm 1 mps 687 mmHg 78%
    19:00 +15°C° 0 mm 1 mps 686 mmHg 87%
    20:00 +14°C° 0 mm 1 mps 687 mmHg 89%
    21:00 +14°C° 0 mm 1 mps 687 mmHg 91%
    22:00 +13°C° 0 mm 1 mps 687 mmHg 92%
    23:00 +13°C° 0 mm 1 mps 687 mmHg 92%

    26 September, Thursday

    Time Temperature Precipitation Wind Pressure Humidity
    00:00 +13°C° 0 mm 1 mps 687 mmHg 92%
    01:00 +13°C° 0 mm 1 mps 686 mmHg 92%
    02:00 +13°C° 0 mm 1 mps 686 mmHg 92%
    03:00 +13°C° 0 mm 1 mps 686 mmHg 92%
    04:00 +12°C° 0 mm 1 mps 686 mmHg 91%
    05:00 +13°C° 0 mm 1 mps 686 mmHg 88%
    06:00 +14°C° 0 mm 1 mps 687 mmHg 84%
    07:00 +15°C° 0 mm 1 mps 687 mmHg 81%
    08:00 +18°C° 0 mm 1 mps 687 mmHg 74%
    09:00 +19°C° 0 mm 2 mps 688 mmHg 67%
    10:00 +21°C° 0 mm 2 mps 689 mmHg 60%
    11:00 +21°C° 0.5 mm 2 mps 689 mmHg 64%
    12:00 +21°C° 0.5 mm 2 mps 689 mmHg 68%
    13:00 +20°C° 0.5 mm 2 mps 689 mmHg 71%
    14:00 +20°C° 0.5 mm 2 mps 689 mmHg 75%
    15:00 +20°C° 0.5 mm 1 mps 689 mmHg 79%
    16:00 +20°C° 0.5 mm 1 mps 688 mmHg 82%
    17:00 +18°C° 0.1 mm 1 mps 688 mmHg 86%
    18:00 +15°C° 0.1 mm 0 mps 688 mmHg 90%
    19:00 +14°C° 0.1 mm 0 mps 688 mmHg 93%
    20:00 +13°C° 0 mm 0 mps 689 mmHg 93%
    21:00 +13°C° 0 mm 0 mps 689 mmHg 94%
    22:00 +13°C° 0 mm 0 mps 689 mmHg 94%
    23:00 +13°C° 0 mm 0 mps 689 mmHg 93%
    Show more